Terminal Aerodrome Forecast
Issued by NWS Spokane, WA

Home | Current Version | Previous Version | Text Only | Print | Product List | Glossary On
Versions: 1 2 3 4 5 6 7 8 9 10 11 12 13 14 15 16 17 18 19 20 21 22 23 24 25 26 27 28 29 30 31 32 33 34
000
FTUS46 KOTX 222228 AAA
TAFLWS
TAF AMD
KLWS 222228Z 2222/2318 30007KT 6SM TSRAGS BKN070CB BKN120
     FM230100 23005KT P6SM VCSH SCT070 BKN120
     FM230600 VRB03KT P6SM SCT100 SCT200=

USA.gov is the U.S. government's official web portal to all federal, state and local government web resources and services.